Burns Flat, OK

4:37 PM CST on February 24, 2017 (GMT -0600)
Clinton-Sherman

Weather History for KCSM - August, 2014

Change the Weather History Date:

Wednesday, August 27, 2014

  Actual Average Record
Temperature  
Mean Temperature 85 °F -  
Max Temperature 98 °F 91 °F 107 °F (1999)
Min Temperature 73 °F 68 °F 62 °F (2010)
Cooling Degree Days 20    
Growing Degree Days 35 (Base 50)    
Moisture  
Dew Point 62 °F    
Average Humidity 47    
Maximum Humidity 73    
Minimum Humidity 26    
Precipitation  
Precipitation 0.00 in - - ()
Sea Level Pressure  
Sea Level Pressure 29.99 in    
Wind  
Wind Speed 9 mph (SSE)    
Max Wind Speed 16 mph    
Max Gust Speed 21 mph    
Visibility 10 miles    
Events      
Averages and records for this station are not official NWS values.
T = Trace of Precipitation, MM = Missing Value Source: NWS Daily Summary

Daily Weather History Graph

Daily Weather History Graph

Search for Another Location

Airport or City:

Trip Planner

Search our weather history database for the weather conditions in past years. The results will help you decide how hot, cold, wet, or windy it might be!

Date:

Astronomy

Aug. 27, 2014 Rise Set
Actual Time 7:05 AM CDT 8:10 PM CDT
Civil Twilight 6:39 AM CDT 8:36 PM CDT
Nautical Twilight 6:08 AM CDT 9:07 PM CDT
Astronomical Twilight 5:35 AM CDT 9:39 PM CDT
Moon 8:57 AM CDT (8/27) 9:10 PM CDT (8/27)
Length of Visible Light 13h 57m
Length of Day
13h 05m
Waxing Crescent, 4% of the Moon is Illuminated
Aug 27
Waxing Crescent
Sep 2
First Quarter
Sep 8
Full
Sep 15
Last Quarter
Sep 24
New

Hourly Weather History & Observations

Time (CDT) Temp. Heat Index Dew Point Humidity Pressure Visibility Wind Dir Wind Speed Gust Speed Precip Events Conditions
12:53 AM 82.9 °F 84.0 °F 63.0 °F 51% 30.01 in 10.0 mi SSE 11.5 mph - N/A   Clear
1:53 AM 81.0 °F 82.2 °F 63.0 °F 54% 30.01 in 10.0 mi SE 6.9 mph - N/A   Clear
2:53 AM 79.0 °F - 63.0 °F 58% 30.02 in 10.0 mi SE 5.8 mph - N/A   Clear
3:53 AM 77.0 °F - 64.0 °F 64% 30.01 in 10.0 mi SSE 8.1 mph - N/A   Clear
4:53 AM 75.9 °F - 64.0 °F 67% 30.01 in 10.0 mi South 8.1 mph - N/A   Clear
5:53 AM 75.9 °F - 64.9 °F 69% 30.01 in 10.0 mi SSE 9.2 mph - N/A   Clear
6:53 AM 73.9 °F - 64.9 °F 73% 30.04 in 10.0 mi SSE 5.8 mph - N/A   Clear
7:53 AM 75.9 °F - 66.0 °F 71% 30.04 in 10.0 mi SSE 4.6 mph - N/A   Clear
8:53 AM 80.1 °F 82.1 °F 66.0 °F 62% 30.06 in 10.0 mi SE 5.8 mph - N/A   Clear
10:53 AM 87.1 °F 89.2 °F 66.0 °F 49% 30.05 in 10.0 mi SSE 9.2 mph - N/A   Clear
11:53 AM 90.0 °F 91.3 °F 64.0 °F 42% 30.04 in 10.0 mi SSE 8.1 mph - N/A   Clear
12:53 PM 91.9 °F 92.9 °F 63.0 °F 38% 30.02 in 10.0 mi SSE 8.1 mph - N/A   Scattered Clouds
2:53 PM 97.0 °F 95.7 °F 57.0 °F 26% 29.97 in 10.0 mi SSE 15.0 mph 20.7 mph N/A   Partly Cloudy
3:53 PM 96.1 °F 94.8 °F 57.0 °F 27% 29.96 in 10.0 mi South 12.7 mph 18.4 mph N/A   Mostly Cloudy
4:53 PM 93.9 °F 92.9 °F 57.9 °F 30% 29.94 in 10.0 mi SSE 12.7 mph - N/A   Scattered Clouds
5:53 PM 93.9 °F 92.9 °F 57.9 °F 30% 29.92 in 10.0 mi SE 15.0 mph - N/A   Scattered Clouds
6:53 PM 93.9 °F 92.6 °F 57.0 °F 29% 29.91 in 10.0 mi SSE 12.7 mph - N/A   Scattered Clouds
7:53 PM 91.0 °F 90.0 °F 57.9 °F 33% 29.93 in 10.0 mi South 11.5 mph - N/A   Partly Cloudy
8:53 PM 88.0 °F 87.1 °F 59.0 °F 37% 29.94 in 10.0 mi SSE 8.1 mph - N/A   Clear
9:53 PM 87.1 °F 86.5 °F 59.0 °F 39% 29.96 in 10.0 mi SSE 10.4 mph - N/A   Partly Cloudy
10:53 PM 84.9 °F 84.8 °F 60.1 °F 43% 29.95 in 10.0 mi SSE 11.5 mph - N/A   Clear
11:53 PM 82.9 °F 83.7 °F 62.1 °F 49% 29.95 in 10.0 mi SSE 16.1 mph - N/A   Clear